Content
SEND FEEDBACK

Daily
Averages
Monthly
Summary
India

JAIPUR, INDIA


Home > Asia > India
Elevation: 1279 feet     Latitude: 26 49N     Longitude: 075 48E

WEATHER
 
SELECT A DAY
Number of Records: 99,704;   Date Range: 10/1/99 - 9/30/14
 
SHARE

PRINT THIS DATA

[ ← Previous Day ]
WEATHER ALMANAC - MAY 10, 2013
[ Next Day → ]
[ °C ]   °F
Weather ElementAverageHighLow
Temperature92 °F103 °F (2:30 pm)84.2 °F (4:00 am)
Dewpoint44.4 °F52 °F (11:30 am)35.6 °F (7:00 pm)
Humidity17.8 %26 % (9:30 am)8 % (5:30 pm)
Barometer29.66 in29.74 in (8:30 am)29.54 in (5:30 pm)
Wind Speed6.8 mph11.5 mph (10:00 am)
Weather ElementAverage
Visibility2.4 mi
Wind DirectionWSW (260.7 °)

Weather ElementTotal
Precipitation---
Cooling Degree Days28.6 (Base 65)
Growing Degree Days43.6 (Base 50)
Averaged from 31 records on May 10, 2013
WEATHER CONDITIONS BREAKOUT
WIND DIRECTION BREAKOUT
WEATHER BY HOUR - MAY 10, 2013
[ °C ]   °F
Local TimeTemperatureDewpointHumidityBarometerVisibilityWind DirectionWind SpeedGust SpeedPrecipitationEventsConditions
1:00 AM87.8 °F39.2 °F18 %29.65 in2.5 miNW (310°)4.6 mphHaze
2:00 AM86.0 °F39.2 °F19 %29.65 in2.5 miWNW (300°)4.6 mphHaze
2:30 AM86.0 °F40.0 °F11 %29.61 in2.0 miNW (320°)4.6 mphHaze
3:01 AM86.0 °F41.0 °F20 %29.65 in2.5 miWNW (300°)4.6 mphHaze
4:00 AM84.2 °F41.0 °F22 %29.65 in2.5 miNW (310°)4.6 mphHaze
5:00 AM86.0 °F41.0 °F20 %29.65 in2.5 miNW (320°)6.9 mphHaze
5:30 AM87.0 °F46.0 °F15 %29.59 in2.0 miNW (320°)6.9 mphHaze
6:00 AM86.0 °F42.8 °F22 %29.68 in2.5 miNW (320°)6.9 mphHaze
7:00 AM87.8 °F44.6 °F22 %29.71 in2.5 miNW (320°)8.1 mphHaze
8:00 AM89.6 °F46.4 °F22 %29.71 in2.5 miVariable8.1 mphHaze
8:30 AM91.0 °F50.0 °F16 %29.63 in2.0 miNW (320°)9.2 mphHaze
8:30 AM91.4 °F48.2 °F23 %29.74 in2.5 miNW (310°)8.1 mphHaze
9:00 AM91.4 °F50.0 °F24 %29.74 in2.5 miWNW (300°)9.2 mphHaze
9:30 AM91.4 °F51.8 °F26 %29.74 in2.5 miNW (310°)10.4 mphHaze
10:00 AM93.2 °F50.0 °F23 %29.74 in2.5 miWNW (290°)11.5 mphHaze
11:00 AM95.0 °F50.0 °F22 %29.74 in2.5 miWest (280°)11.5 mphHaze
11:30 AM95.0 °F52.0 °F15 %29.65 in2.0 miWNW (290°)11.5 mphHaze
2:00 PM98.6 °F46.4 °F17 %29.68 in3.1 miSW (230°)6.9 mphHaze
2:30 PM103.0 °F52.0 °F11 %29.57 in2.0 miSW (230°)11.5 mph
3:00 PM98.6 °F44.6 °F16 %29.68 in3.1 miWSW (250°)11.5 mphHaze
4:00 PM98.6 °F44.6 °F16 %29.65 in3.1 miWSW (240°)10.4 mphHaze
5:00 PM98.6 °F41.0 °F14 %29.65 in3.1 miNNW (330°)6.9 mphHaze
5:30 PM99.0 °F43.0 °F8 %29.54 in2.0 miNW (320°)6.9 mphHaze
6:00 PM96.8 °F39.2 °F14 %29.62 in3.1 miNW (310°)3.5 mphHaze
7:00 PM96.8 °F35.6 °F12 %29.62 in2.5 miWSW (250°)8.1 mphHaze
7:30 PM95.0 °F37.4 °F13 %29.62 in2.2 miWSW (240°)3.5 mphHaze
8:00 PM93.2 °F41.0 °F16 %29.65 in2.2 miWSW (240°)3.5 mphHaze
8:30 PM91.0 °F51.0 °F16 %29.54 in1.0 miCalmHaze
9:00 PM91.4 °F41.0 °F17 %29.65 in2.2 miVariable2.3 mphHaze
10:00 PM87.8 °F42.8 °F21 %29.65 in2.2 miCalmHaze
11:00 PM89.6 °F42.8 °F20 %29.68 in2.2 miWest (260°)5.8 mphHaze
Hourly data recorded from VIJP, located miles away from Jaipur, India







STORIES FROM OUR PARTNERS